الصفحة الرئيسية
METAR-TAF:

METAR-TAF

مطار :

مدينة همدان, إيران

دائرة عرض: 34-52-05N, خط طول: 048-33-08E, ارتفاع: 1757 متر

مراقبة الطقس الحالي

تاريخ ووقت الإصدار 54 دقيقة قبل الساعة 03:00UTC
ريح 2 عقدة من الشرق
درجة الحرارة 18°درجة مئوية
الرطوبة 45%
ضغط 1021 hPa
الرؤية 10 كم أو أكثر
غيوم قليلة على ارتفاع 4000 قدم

METAR: OIHH 190300Z 10002KT 9999 FEW040 18/06 Q1021 A3016

زمن: 08:24 (03:54 UTC)


TAF: مفقودة

أرصاد الطقس والتوقعات من أكثر من 4000 مطار (تقارير الطقس للمطار METAR والتنبؤ بالطقس بالمطارTAF).

المحطات المتاحة هي النقط الصفراء والحمراء على الخريطة.

حرك المؤشر فوق النقطة لمعرفة اسم المحطة.

ثم انقر لمعرفة أرصاد وتوقعات الطقس.

لتغيير الخارطة: اضغط على الأزرار الخضراء مع رمز الصليب الأسود للتكبير. على الزر الأخضر مع شرطة للتصغير، أو على الأسهم الخضراء للخرائط المجاورة.


METAR-TAF: